Kuiper-00098

operational
NORAD ID: 65137 Int'l Des: 2025-171 Owner: KUIP Country: US Constellation: kuiper
LEOCIRCULAR

Kuiper-00098について

説明を読み込み中...

リアルタイム位置

3D地球を読み込み中...

次回通過

高度履歴

Altitude vs Time

uPlot chart will show altitude changes over time

軌道要素

1 65137U 25171F 25352.77113994 -.00012505 00000-0 -16144-2 0 9999
2 65137 51.8986 160.9080 0008929 215.1629 144.8745 14.79896915 20182
Epoch: Dec 18, 2025 • Age: 26 hours

現在のステータス

高度 644.3 km
速度 7.54 km/s
衛星直下点 -50.42°S, 55.54°E
打ち上げ日 Aug 11, 2025
運用期間 0.3 years
タイプ internet

技術仕様

分類 Payload
質量 490.00 kg
乾燥質量 490.00 kg
総質量 490.00 kg
長さ 1.80 m
直径 0.70 m
スパン 5.00 m
形状 Box + 2 pan
製造者 KUIP
バスタイプ Kuiper
フェーズステータス In Orbit
所有者/国 KUIP/US

大規模コンステレーション

Loading constellations...